Meteo Giornale » Osservazioni meteo Canada » Sherbrooke Que
ore: 16:00 - Osservazioni Meteo Sherbrooke Que
Lat. 45° 24' N Lon. 71° 53' W Alt. 170 metri s.l.m.
21 °C
Poco Nuvoloso
Temp. 24 Ore
9 °C
21 °C
Nord
5.5 Km/h
Dew point 10 °C
Umidità 49 %
Visibilità 14 Km
Il sole sorge alle ore 06:08
Il sole tramonta alle ore 19:27
| Data e Ora | Cielo e Fenomeni | T °C | DP °C | Um. % | Pres. hPa | Vis. km | Vento km/h | |
|---|---|---|---|---|---|---|---|---|
| Oggi h: 16:00 | Poco Nuvoloso | 21 | 10 | 49 | 1019 | 14 | N 5.5 | |
| Oggi h: 15:00 | Poco Nuvoloso | 21 | 9 | 46 | 1019 | 14 | O/NO 14.8 | |
| Oggi h: 14:00 | Poco Nuvoloso | 20 | 11 | 56 | 1019 | 14 | N 7.4 | |
| Oggi h: 13:00 | Poco Nuvoloso | 19 | 11 | 59 | 1020 | 14 | N 3.7 | |
| Oggi h: 12:00 | Sereno | 18 | 9 | 55 | 1021 | 14 | N 7.4 | |
| Oggi h: 11:00 | Poco Nuvoloso | 14 | 14 | 100 | 1021 | 14 | N 5.5 | |
| Oggi h: 10:51 | Nuvoloso | 14 | 13 | 93 | 1021 | 14 | N 3.7 | |
| Oggi h: 10:39 | Molto Nuvoloso | 13 | 13 | 100 | 1021 | 14 | N 5.5 | |
| Oggi h: 10:01 | Foschia | 11 | 11 | 100 | 1022 | 10 | N 0 | |
| Oggi h: 10:00 | Foschia | 12 | 12 | 100 | 1022 | 8 | N 3.7 | |
| Oggi h: 09:46 | Foschia | 11 | 11 | 100 | 1021 | 5 | N 0 | |
| Oggi h: 09:44 | Foschia | 11 | 11 | 100 | 1022 | 3 | N 3.7 | |
| Oggi h: 09:33 | Foschia | 11 | 11 | 100 | 1021 | 2 | N 3.7 | |
| Oggi h: 09:31 | Foschia | 11 | 11 | 100 | 1021 | 5 | N 3.7 | |
| Oggi h: 09:22 | Nebbia | 11 | 11 | 100 | 1021 | 5 | S/SO 7.4 | |
| Oggi h: 09:13 | Nebbia | 11 | 11 | 100 | 1021 | 2 | N 5.5 | |
| Oggi h: 09:00 | Nebbia | 10 | 10 | 100 | 1021 | 2 | N 3.7 | |
| Oggi h: 08:00 | Nebbia | 10 | 10 | 100 | 1021 | 2 | N 5.5 | |
| Oggi h: 07:00 | Nebbia | 9 | 9 | 100 | 1021 | 2 | N 5.5 | |
| Oggi h: 06:00 | Nebbia | 10 | 10 | 100 | 1020 | 2 | N 3.7 | |
| Oggi h: 05:00 | Nebbia | 10 | 10 | 100 | 1020 | 2 | N 3.7 | |
| Oggi h: 04:00 | Nebbia | 10 | 10 | 100 | 1019 | 2 | N 3.7 | |
| Oggi h: 03:00 | Nebbia | 10 | 10 | 100 | 1019 | 2 | N 3.7 | |
| Oggi h: 02:00 | Nebbia | 10 | 10 | 100 | 1019 | 2 | N 3.7 | |
| Oggi h: 01:00 | Nebbia | 11 | 11 | 100 | 1019 | 2 | N 0 | |
| Oggi h: 00:00 | Nebbia | 12 | 12 | 100 | 1019 | 2 | N 5.5 | |
| Ieri h: 23:00 | Nebbia | 11 | 11 | 100 | 1018 | 5 | E/SE 7.4 | |
| Ieri h: 22:55 | Nebbia | 11 | 11 | 100 | 1018 | 5 | E/SE 7.4 | |
| Ieri h: 22:48 | Nebbia | 11 | 11 | 100 | 1018 | 5 | N 0 | |
| Ieri h: 22:41 | Foschia | 11 | 11 | 100 | 1018 | 5 | N 3.7 | |
| Ieri h: 22:37 | Foschia | 12 | 12 | 100 | 1018 | 5 | N 5.5 | |
| Ieri h: 22:36 | Foschia | 12 | 12 | 100 | 1018 | 2 | N 5.5 | |
| Ieri h: 22:18 | Foschia | 11 | 11 | 100 | 1018 | 8 | N 5.5 | |
| Ieri h: 22:05 | Nuvoloso | 12 | 12 | 100 | 1018 | 11 | O 7.4 | |
| Ieri h: 22:02 | Foschia | 12 | 12 | 100 | 1018 | 5 | O 9.3 | |
| Ieri h: 22:00 | Foschia | 12 | 12 | 100 | 1018 | 3 | O 9.3 | |
| Ieri h: 21:58 | Foschia | 12 | 12 | 100 | 1018 | 2 | O 9.3 | |
| Ieri h: 21:55 | Nebbia | 12 | 12 | 100 | 1018 | 2 | O 9.3 | |
| Ieri h: 21:47 | Nebbia | 11 | 11 | 100 | 1018 | 5 | O 11.1 | |
| Ieri h: 21:44 | Nebbia | 11 | 11 | 100 | 1018 | 5 | O 9.3 | |
| Ieri h: 21:38 | Foschia | 11 | 11 | 100 | 1018 | 5 | O 9.3 | |
| Ieri h: 21:37 | Foschia | 11 | 11 | 100 | 1018 | 5 | O 9.3 | |
| Ieri h: 21:35 | Foschia | 12 | 12 | 100 | 1018 | 2 | O 7.4 | |
| Ieri h: 21:33 | Foschia | 12 | 12 | 100 | 1018 | 2 | O/NO 7.4 | |
| Ieri h: 21:31 | Foschia | 12 | 12 | 100 | 1018 | 8 | O/NO 7.4 | |
| Ieri h: 21:00 | Sereno | 12 | 12 | 100 | 1017 | 14 | O/SO 7.4 | |
| Ieri h: 20:00 | Molto Nuvoloso | 13 | 13 | 100 | 1016 | 14 | S 7.4 | |
| Ieri h: 19:36 | Nuvoloso | 14 | 14 | 100 | 1016 | 14 | N 3.7 | |
| Ieri h: 19:28 | Pioggia | 14 | 14 | 100 | 1016 | 14 | N 5.5 | |
| Ieri h: 19:09 | Pioggia Foschia | 14 | 13 | 93 | 1016 | 10 | N 3.7 | |
| Ieri h: 19:05 | Pioggia Foschia | 15 | 13 | 87 | 1017 | 6 | N 5.5 | |
| Ieri h: 19:00 | Pioggia Foschia | 15 | 13 | 87 | 1016 | 6 | N 14.8 | |
| Ieri h: 18:59 | Pioggia Foschia | 15 | 13 | 87 | 1016 | 6 | N 13 | |
| Ieri h: 18:55 | Pioggia | 15 | 14 | 93 | 1016 | 11 | N 16.7 | |
| Ieri h: 18:54 | Pioggia | 15 | 14 | 93 | 1016 | 13 | N 18.5 | |
| Ieri h: 18:52 | Pioggia Temporale nelle vicinanze | 15 | 14 | 93 | 1016 | 14 | N/NO 20.3 | |
| Ieri h: 18:38 | Temporale nelle vicinanze | 15 | 14 | 93 | 1015 | 14 | N 13 | |
| Ieri h: 18:24 | Temporale | 15 | 14 | 93 | 1015 | 14 | N 0 | |
| Ieri h: 18:22 | Temporale | 15 | 14 | 93 | 1015 | 14 | N 0 | |
| Ieri h: 18:18 | Temporale | 15 | 14 | 93 | 1015 | 11 | S 7.4 | |
| Ieri h: 18:15 | Temporale Foschia | 15 | 14 | 93 | 1015 | 5 | N 7.4 | |
| Ieri h: 18:13 | Temporale Foschia | 15 | 14 | 93 | 1015 | 2 | N 5.5 | |
| Ieri h: 18:08 | Temporale Foschia | 15 | 14 | 93 | 1015 | 2 | N 0 | |
| Ieri h: 18:04 | Pioggia Temporale nelle vicinanze | 15 | 14 | 93 | 1015 | 8 | O/SO 7.4 | |
| Ieri h: 18:02 | Pioggia Temporale nelle vicinanze | 15 | 14 | 93 | 1015 | 13 | O/SO 9.3 | |
| Ieri h: 18:00 | Temporale | 15 | 14 | 93 | 1015 | 13 | O 11.1 | |
| Ieri h: 17:55 | Temporale Foschia | 15 | 14 | 93 | 1015 | 10 | O 11.1 | |
| Ieri h: 17:54 | Temporale Foschia | 15 | 14 | 93 | 1015 | 10 | O 13 | |
| Ieri h: 17:45 | Temporale Foschia | 15 | 13 | 87 | 1015 | 8 | O/NO 14.8 | |
| Ieri h: 17:44 | Temporale Foschia | 15 | 13 | 87 | 1015 | 10 | NO 16.7 | |



